�N����,����,�~����,�C��,���x,�C��,����,���ϕ���,�ő�u�ԕ���,�ő厞����,���˗�,�I�_���x,�n�����x,�ő啗���N��,DTYPE
"22/04/18","00:10",0.0,12.1,88.1,1014.7,302.4,2.3,3.4,333.6,0.00,10.2,15.4,"00:04:34",1
"22/04/18","00:20",0.0,12.0,88.3,1014.5,310.2,1.8,2.6,321.5,0.00,10.2,15.3,"00:10:02",1
"22/04/18","00:30",0.0,11.9,88.6,1014.5,295.6,2.0,2.6,311.5,0.00,10.1,15.3,"00:20:48",1
"22/04/18","00:40",0.0,11.6,88.7,1014.7,300.3,1.5,2.1,322.1,0.00,9.8,15.3,"00:39:06",1
"22/04/18","00:50",0.0,11.4,89.0,1014.9,323.9,1.5,2.0,326.5,0.00,9.7,15.3,"00:48:00",1
"22/04/18","01:00",0.0,11.2,89.3,1014.7,289.2,1.3,2.0,299.4,0.00,9.5,15.2,"00:59:28",1
"22/04/18","01:10",0.0,11.4,89.6,1014.7,309.9,1.8,2.4,311.3,0.00,9.8,15.0,"01:07:04",1
"22/04/18","01:20",0.0,11.4,89.8,1014.7,296.8,1.6,2.9,318.5,0.00,9.8,15.0,"01:11:28",1
"22/04/18","01:30",0.0,11.4,90.1,1014.5,293.9,1.5,1.8,310.6,0.00,9.9,14.8,"01:28:32",1
"22/04/18","01:40",0.0,11.4,90.3,1014.5,299.3,1.3,1.7,305.2,0.00,9.9,15.0,"01:30:56",1
"22/04/18","01:50",0.0,11.4,90.4,1014.2,308.9,1.3,2.1,323.7,0.00,9.9,14.8,"01:49:36",1
"22/04/18","02:00",0.0,11.1,90.5,1014.2,312.7,1.8,2.4,323.4,0.00,9.6,14.8,"01:56:32",1
"22/04/18","02:10",0.0,11.2,90.9,1014.0,292.5,1.6,2.1,317.6,0.00,9.8,14.9,"02:07:36",1
"22/04/18","02:20",0.0,11.4,91.0,1014.2,305.3,2.0,2.6,326.6,0.00,10.0,14.9,"02:16:32",1
"22/04/18","02:30",0.0,11.2,91.1,1014.0,318.6,1.7,2.4,323.8,0.00,9.8,14.8,"02:22:48",1
"22/04/18","02:40",0.0,11.1,91.5,1014.2,305.6,1.8,2.8,309.6,0.00,9.8,14.9,"02:39:52",1
"22/04/18","02:50",0.0,11.0,91.6,1014.0,316.5,1.6,2.4,325.0,0.00,9.7,14.8,"02:41:28",1
"22/04/18","03:00",0.0,10.9,91.8,1013.8,292.1,1.6,2.1,316.6,0.00,9.7,14.7,"02:50:02",1
"22/04/18","03:10",0.0,11.0,92.1,1014.0,292.3,1.7,2.1,301.0,0.00,9.8,14.4,"03:00:56",1
"22/04/18","03:20",0.0,11.3,92.2,1013.8,307.0,2.0,2.8,326.0,0.00,10.1,14.7,"03:13:36",1
"22/04/18","03:30",0.0,11.5,92.3,1014.2,303.7,1.8,2.1,317.3,0.00,10.3,14.6,"03:24:48",1
"22/04/18","03:40",0.0,11.7,92.4,1013.8,301.4,1.6,2.4,317.2,0.00,10.5,14.5,"03:32:08",1
"22/04/18","03:50",0.0,11.8,92.5,1014.0,315.9,1.8,2.1,321.6,0.00,10.7,14.5,"03:40:24",1
"22/04/18","04:00",0.0,11.9,92.6,1013.8,287.4,1.3,1.6,297.3,0.00,10.8,14.4,"03:50:08",1
"22/04/18","04:10",0.0,12.2,92.5,1014.0,288.2,1.6,2.4,316.3,0.00,11.1,14.4,"04:07:02",1
"22/04/18","04:20",0.0,12.4,92.4,1013.5,289.9,1.6,2.4,322.1,0.00,11.2,14.6,"04:15:28",1
"22/04/18","04:30",0.0,12.5,92.2,1013.8,289.5,1.6,2.2,328.1,0.00,11.3,14.4,"04:22:44",1
"22/04/18","04:40",0.0,12.6,91.9,1014.0,276.8,1.3,2.1,302.6,0.00,11.4,14.4,"04:31:44",1
"22/04/18","04:50",0.0,12.8,91.7,1014.0,292.1,1.6,2.7,316.6,0.00,11.5,14.5,"04:40:32",1
"22/04/18","05:00",0.0,12.9,91.4,1013.8,295.0,1.1,1.3,311.0,0.00,11.6,14.3,"04:54:18",1
"22/04/18","05:10",0.0,12.9,91.2,1013.8,272.7,0.6,1.2,296.5,0.00,11.5,14.3,"05:00:18",1
"22/04/18","05:20",0.0,13.0,91.0,1014.0,288.4,0.6,1.3,307.2,0.00,11.6,14.3,"05:13:28",1
"22/04/18","05:30",0.0,13.2,90.7,1014.0,315.8,1.2,1.7,321.6,0.00,11.8,14.5,"05:20:58",1
"22/04/18","05:40",0.0,13.1,90.5,1014.0,285.2,1.3,1.8,311.5,0.00,11.6,14.4,"05:37:12",1
"22/04/18","05:50",0.0,12.9,90.3,1014.0,299.9,1.6,2.8,317.1,0.00,11.4,14.5,"05:44:34",1
"22/04/18","06:00",0.0,12.7,90.3,1014.0,316.1,1.8,2.6,321.8,0.00,11.2,14.4,"05:59:58",1
"22/04/18","06:10",0.0,12.8,90.2,1014.0,305.7,2.0,2.7,332.7,0.00,11.3,14.3,"06:00:20",1
"22/04/18","06:20",0.0,12.9,90.2,1014.0,283.7,1.1,1.4,311.4,0.00,11.4,14.0,"06:18:00",1
"22/04/18","06:30",0.0,13.0,90.1,1014.7,279.8,1.2,1.7,268.4,0.00,11.5,14.3,"06:24:40",1
"22/04/18","06:40",0.0,13.2,89.9,1014.5,308.5,1.6,2.2,324.1,0.01,11.6,14.3,"06:33:12",1
"22/04/18","06:50",0.0,13.3,89.7,1014.5,307.7,1.5,2.4,320.0,0.02,11.7,14.3,"06:43:36",1
"22/04/18","07:00",0.0,13.3,89.5,1014.5,273.8,1.1,1.6,266.4,0.02,11.7,14.3,"06:50:40",1
"22/04/18","07:10",0.0,13.5,89.3,1014.2,293.1,1.1,1.3,263.0,0.03,11.8,14.3,"07:01:28",1
"22/04/18","07:20",0.0,13.8,89.1,1014.2,302.3,0.8,1.3,318.7,0.05,12.1,14.3,"07:10:08",1
"22/04/18","07:30",0.0,14.2,88.8,1014.7,282.8,0.8,1.1,271.9,0.06,12.4,14.3,"07:27:20",1
"22/04/18","07:40",0.0,14.5,88.3,1014.5,271.7,0.5,0.8,301.6,0.07,12.6,14.3,"07:32:08",1
"22/04/18","07:50",0.0,14.6,87.7,1014.7,271.9,1.0,1.3,295.5,0.06,12.6,14.2,"07:44:16",1
"22/04/18","08:00",0.0,14.6,87.2,1014.7,276.9,1.2,2.1,246.1,0.06,12.5,14.2,"07:53:20",1
"22/04/18","08:10",0.0,14.9,86.3,1014.2,292.3,1.3,2.5,331.1,0.10,12.7,14.4,"08:02:56",1
"22/04/18","08:20",0.0,15.4,85.3,1014.2,302.1,1.2,1.8,332.4,0.15,13.0,14.3,"08:11:36",1
"22/04/18","08:30",0.0,16.0,83.7,1014.0,302.2,0.6,1.2,303.8,0.17,13.3,14.3,"08:20:56",1
"22/04/18","08:40",0.0,16.7,82.6,1013.8,299.2,0.8,1.4,321.6,0.19,13.8,14.4,"08:36:24",1
"22/04/18","08:50",0.0,17.2,80.9,1014.0,290.3,1.0,1.3,256.8,0.20,13.9,14.3,"08:44:40",1
"22/04/18","09:00",0.0,18.0,78.1,1013.8,275.1,0.6,1.4,245.7,0.34,14.2,14.4,"08:54:16",1
"22/04/18","09:10",0.0,18.1,74.6,1013.5,153.4,0.7,1.9,126.0,0.25,13.6,14.2,"09:04:56",1
"22/04/18","09:20",0.0,18.8,72.6,1013.5,242.4,0.8,2.1,236.3,0.38,13.8,14.6,"09:14:48",1
"22/04/18","09:30",0.0,19.0,70.4,1013.5,183.4,1.5,2.8,194.3,0.39,13.5,14.5,"09:29:12",1
"22/04/18","09:40",0.0,19.1,69.9,1013.0,176.9,2.0,3.9,199.7,0.40,13.5,14.7,"09:34:56",1
"22/04/18","09:50",0.0,19.2,68.8,1012.8,146.1,2.3,4.3,129.0,0.46,13.4,14.6,"09:45:44",1
"22/04/18","10:00",0.0,19.2,69.2,1012.6,131.9,2.3,5.2,114.4,0.36,13.5,14.8,"09:51:12",1
"22/04/18","10:10",0.0,18.9,68.9,1012.8,128.2,2.2,3.4,141.3,0.31,13.1,14.9,"10:00:32",1
"22/04/18","10:20",0.0,19.0,69.7,1012.8,125.0,1.6,3.7,147.2,0.23,13.4,15.0,"10:10:40",1
"22/04/18","10:30",0.0,19.0,69.4,1012.8,139.7,2.3,4.1,147.5,0.25,13.3,14.9,"10:25:28",1
"22/04/18","10:40",0.0,19.2,69.8,1012.3,128.8,1.5,2.9,126.6,0.29,13.6,15.0,"10:39:52",1
"22/04/18","10:50",0.0,19.4,69.2,1012.8,146.6,2.2,4.0,143.9,0.34,13.7,14.9,"10:46:40",1
"22/04/18","11:00",0.0,20.1,68.6,1012.6,120.9,1.8,3.7,152.1,0.47,14.2,15.2,"10:50:16",1
"22/04/18","11:10",0.0,20.0,67.4,1012.6,146.1,2.5,6.2,158.8,0.37,13.8,15.2,"11:08:24",1
"22/04/18","11:20",0.0,20.3,67.5,1012.1,114.1,2.1,5.5,137.3,0.45,14.1,15.1,"11:18:16",1
"22/04/18","11:30",0.0,20.5,65.5,1011.6,135.3,2.8,4.9,127.0,0.59,13.9,15.2,"11:23:12",1
"22/04/18","11:40",0.0,20.6,66.9,1011.9,158.1,2.8,4.8,201.4,0.45,14.3,15.3,"11:33:36",1
"22/04/18","11:50",0.0,20.6,66.5,1011.6,150.2,2.7,5.1,121.5,0.47,14.2,15.3,"11:48:00",1
"22/04/18","12:00",0.0,20.0,65.9,1011.2,115.3,2.5,5.6,119.8,0.37,13.5,15.5,"11:55:44",1
"22/04/18","12:10",0.0,20.0,67.5,1010.9,128.3,2.5,5.0,119.8,0.29,13.8,15.8,"12:03:28",1
"22/04/18","12:20",0.0,20.1,67.6,1011.4,124.5,2.2,4.2,122.8,0.37,14.0,15.7,"12:11:52",1
"22/04/18","12:30",0.0,21.2,66.3,1010.7,157.5,2.2,4.7,114.2,0.56,14.7,15.6,"12:20:32",1
"22/04/18","12:40",0.0,21.2,64.0,1010.9,150.6,2.1,5.4,118.3,0.53,14.2,15.9,"12:38:16",1
"22/04/18","12:50",0.0,21.5,64.3,1010.0,121.9,1.8,4.1,116.5,0.55,14.5,15.9,"12:40:24",1
"22/04/18","13:00",0.0,21.2,62.8,1010.2,119.8,2.2,5.0,119.4,0.44,13.9,15.9,"12:53:52",1
"22/04/18","13:10",0.0,21.4,63.1,1010.0,119.6,2.1,5.4,124.9,0.53,14.1,16.1,"13:05:12",1
"22/04/18","13:20",0.0,22.0,60.6,1009.7,177.6,2.1,4.9,136.9,0.55,14.1,16.1,"13:15:28",1
"22/04/18","13:30",0.0,21.5,60.8,1009.5,147.7,2.2,5.9,121.6,0.39,13.7,16.2,"13:24:24",1
"22/04/18","13:40",0.0,21.5,61.3,1009.5,136.6,2.3,4.8,145.6,0.37,13.8,16.4,"13:39:20",1
"22/04/18","13:50",0.0,21.8,60.2,1009.3,181.0,1.8,3.9,108.9,0.37,13.8,16.3,"13:40:32",1
"22/04/18","14:00",0.0,22.6,58.9,1009.5,168.9,1.8,4.1,202.2,0.51,14.2,16.5,"13:59:52",1
"22/04/18","14:10",0.0,22.8,59.6,1009.3,180.0,2.0,4.3,122.4,0.47,14.6,16.4,"14:00:40",1
"22/04/18","14:20",0.0,22.8,58.5,1008.6,192.1,2.1,5.2,217.1,0.50,14.3,16.5,"14:10:40",1
"22/04/18","14:30",0.0,22.2,57.9,1008.6,181.1,2.5,4.8,123.1,0.38,13.6,16.8,"14:24:16",1
"22/04/18","14:40",0.0,21.5,60.0,1008.8,141.2,2.7,5.1,127.0,0.20,13.5,16.8,"14:38:08",1
"22/04/18","14:50",0.0,21.2,60.7,1008.8,128.5,2.2,4.7,132.5,0.20,13.4,17.0,"14:46:00",1
"22/04/18","15:00",0.0,21.1,61.6,1008.8,117.3,2.0,4.5,121.2,0.15,13.5,16.8,"14:50:24",1
"22/04/18","15:10",0.0,20.7,62.3,1008.6,138.7,2.1,4.9,169.2,0.13,13.3,17.0,"15:08:16",1
"22/04/18","15:20",0.0,20.9,63.1,1008.8,150.5,1.5,3.5,151.3,0.14,13.7,17.0,"15:16:24",1
"22/04/18","15:30",0.0,20.6,63.1,1008.6,127.4,2.0,4.2,127.5,0.12,13.4,17.0,"15:26:24",1
"22/04/18","15:40",0.0,20.6,63.7,1008.8,105.9,1.8,3.7,111.2,0.13,13.5,17.1,"15:38:16",1
"22/04/18","15:50",0.0,20.6,64.2,1009.3,121.9,1.8,4.1,124.6,0.16,13.6,17.2,"15:45:44",1
"22/04/18","16:00",0.0,20.8,63.7,1008.8,136.5,1.6,3.4,123.5,0.17,13.7,17.1,"15:50:32",1
"22/04/18","16:10",0.0,20.6,63.3,1008.8,95.8,1.5,3.4,108.2,0.13,13.4,17.1,"16:07:36",1
"22/04/18","16:20",0.0,20.2,64.3,1008.6,81.8,1.6,3.2,113.0,0.08,13.3,17.1,"16:13:28",1
"22/04/18","16:30",0.0,19.9,65.1,1008.8,50.7,1.1,2.5,347.5,0.05,13.2,17.2,"16:28:24",1
"22/04/18","16:40",0.0,19.6,65.9,1008.8,29.9,0.8,2.6,10.7,0.01,13.1,17.2,"16:38:48",1
"22/04/18","16:50",0.0,19.3,66.8,1009.0,96.8,1.0,1.9,110.6,0.00,13.0,17.2,"16:46:00",1
"22/04/18","17:00",0.0,19.2,68.0,1008.6,108.9,1.7,3.2,118.9,0.02,13.2,17.3,"16:59:04",1
"22/04/18","17:10",0.0,19.2,68.4,1008.8,108.7,1.7,3.3,107.7,0.06,13.3,17.1,"17:09:12",1
"22/04/18","17:20",0.0,19.0,68.6,1009.0,108.4,1.6,2.8,119.0,0.04,13.1,17.0,"17:12:40",1
"22/04/18","17:30",0.0,19.0,69.0,1008.8,110.6,1.8,3.3,116.1,0.02,13.2,17.1,"17:24:40",1
"22/04/18","17:40",0.0,19.0,68.8,1009.0,96.0,1.2,2.9,106.1,0.02,13.2,17.2,"17:36:40",1
"22/04/18","17:50",0.0,19.1,68.7,1009.0,83.9,0.7,1.6,122.4,0.02,13.3,17.2,"17:43:12",1
"22/04/18","18:00",0.0,19.1,68.4,1009.0,29.7,0.7,1.7,20.2,0.01,13.2,17.1,"17:52:56",1
"22/04/18","18:10",0.0,19.1,68.6,1009.5,343.3,0.7,1.8,330.5,0.01,13.2,17.2,"18:08:48",1
"22/04/18","18:20",0.0,19.2,68.8,1009.0,343.0,1.3,1.9,328.1,0.01,13.4,16.9,"18:16:40",1
"22/04/18","18:30",0.0,19.1,69.4,1009.0,339.2,1.5,2.7,341.0,0.01,13.4,17.0,"18:21:52",1
"22/04/18","18:40",0.0,18.5,67.5,1009.5,337.3,1.8,3.1,347.0,0.00,12.4,16.9,"18:37:44",1
"22/04/18","18:50",0.0,18.5,63.0,1009.7,346.3,1.8,3.4,349.0,0.00,11.4,17.0,"18:40:16",1
"22/04/18","19:00",0.0,18.2,61.6,1009.7,335.6,2.3,4.5,313.7,0.00,10.7,17.1,"18:55:28",1
"22/04/18","19:10",0.0,17.8,60.9,1010.0,326.2,2.6,3.9,344.6,0.00,10.2,17.0,"19:04:32",1
"22/04/18","19:20",0.0,17.8,59.9,1010.2,316.0,3.1,5.2,326.3,0.00,10.0,17.2,"19:11:44",1
"22/04/18","19:30",0.0,17.4,59.6,1010.0,315.9,3.2,4.9,299.9,0.00,9.5,16.9,"19:23:12",1
"22/04/18","19:40",0.0,17.1,59.4,1010.4,312.6,3.1,4.9,350.1,0.00,9.2,16.9,"19:35:52",1
"22/04/18","19:50",0.0,16.9,59.3,1010.4,313.0,3.0,4.5,328.5,0.00,9.0,16.8,"19:48:40",1
"22/04/18","20:00",0.0,16.7,59.5,1010.4,329.7,2.8,5.0,325.6,0.00,8.8,16.8,"19:57:44",1
"22/04/18","20:10",0.0,16.6,59.3,1010.7,327.9,2.7,4.2,319.1,0.00,8.7,16.7,"20:07:52",1
"22/04/18","20:20",0.0,16.2,61.5,1010.7,327.3,1.6,2.7,314.6,0.00,8.8,16.8,"20:18:00",1
"22/04/18","20:30",0.0,15.9,64.4,1010.7,330.1,1.8,3.2,327.6,0.00,9.2,16.7,"20:20:08",1
"22/04/18","20:40",0.0,15.3,67.1,1010.2,335.0,1.6,2.1,334.8,0.00,9.3,16.7,"20:31:44",1
"22/04/18","20:50",0.0,15.0,68.0,1010.4,345.7,1.2,2.1,325.5,0.00,9.2,16.8,"20:47:12",1
"22/04/18","21:00",0.0,14.6,68.4,1010.4,331.7,1.5,2.0,308.6,0.00,8.9,16.5,"20:56:40",1
"22/04/18","21:10",0.0,14.8,66.0,1010.9,342.4,1.6,2.8,326.8,0.00,8.6,16.7,"21:00:16",1
"22/04/18","21:20",0.0,15.1,62.7,1010.9,346.2,1.2,2.2,7.7,0.00,8.1,16.3,"21:11:20",1
"22/04/18","21:30",0.0,14.4,65.6,1010.7,292.7,1.3,2.7,306.3,0.00,8.1,16.5,"21:23:12",1
"22/04/18","21:40",0.0,13.7,67.2,1010.7,294.6,0.7,1.8,324.0,0.00,7.8,16.6,"21:30:48",1
"22/04/18","21:50",0.0,13.3,69.4,1010.7,297.3,1.1,2.0,305.5,0.00,7.9,16.4,"21:48:30",1
"22/04/18","22:00",0.0,13.1,71.4,1010.9,332.4,2.0,2.7,341.6,0.00,8.1,16.2,"21:59:58",1
"22/04/18","22:10",0.0,12.7,72.1,1010.9,308.7,1.3,2.1,337.8,0.00,7.8,16.3,"22:00:08",1
"22/04/18","22:20",0.0,12.3,72.4,1010.7,313.4,1.5,2.1,321.6,0.00,7.5,16.3,"22:17:52",1
"22/04/18","22:30",0.0,12.2,72.2,1010.9,298.9,1.6,2.4,308.2,0.00,7.4,16.0,"22:27:08",1
"22/04/18","22:40",0.0,12.8,69.8,1010.7,311.8,2.1,3.4,330.7,0.00,7.5,16.2,"22:39:10",1
"22/04/18","22:50",0.0,13.8,62.8,1011.2,337.2,2.5,3.6,335.0,0.00,6.9,16.1,"22:44:06",1
"22/04/18","23:00",0.0,14.3,58.3,1011.4,330.9,3.0,6.4,343.7,0.00,6.3,16.2,"22:59:52",1
"22/04/18","23:10",0.0,14.4,55.8,1011.4,302.6,2.3,5.5,334.0,0.00,5.7,16.0,"23:01:14",1
"22/04/18","23:20",0.0,14.0,56.7,1011.4,309.5,2.0,3.1,324.0,0.00,5.6,15.8,"23:13:12",1
"22/04/18","23:30",0.0,13.8,56.9,1011.4,330.7,2.7,3.7,327.0,0.00,5.5,15.9,"23:23:32",1
"22/04/18","23:40",0.0,14.0,55.5,1011.4,327.4,3.5,4.3,324.1,0.00,5.3,15.9,"23:36:48",1
"22/04/18","23:50",0.0,13.7,56.2,1011.6,325.9,2.8,3.9,342.2,0.00,5.2,15.9,"23:43:58",1
"22/04/18","24:00",0.0,13.4,57.4,1011.4,336.1,3.0,4.8,340.4,0.00,5.2,15.9,"23:55:54",1
